Home > Weather > Honolulu > Past weeks

Flag for USA Weather for the Past 2 Weeks in Honolulu, Hawaii, USA

Now
80 °F

Scattered clouds.


Feels Like: 83 °F
Forecast: 71 / 80 °F
Wind: 10 mph from Northeast

Location: Honolulu International Airport

Current Time: May 4, 2016 at 10:02:30 AM

Latest Report: May 4, 2016 at 8:53 AM


Visibility: 10 mi

Pressure: 30.09 "Hg

Humidity: 67%

Dew Point: 68 °F

Location of HonoluluLocation

Historic Weather in Honolulu — Graph

°F

Honolulu Temperature Yesterday

Maximum temperature yesterday: 83 °F (at 3:53 PM)
Minimum temperature yesterday: 75 °F (at 1:53 AM)
Average temperature yesterday: 77 °F

High & Low Weather Summary for the Past Weeks

 TemperatureHumidityPressure
High87 °F (Apr 28, 2:53 PM)93% (Apr 23, 3:53 AM)30.14 "Hg (Apr 23, 3:53 AM)
Low71 °F (Apr 20, 4:53 AM)42% (Apr 28, 2:53 PM)29.98 "Hg (Apr 19, 3:53 PM)
Average78 °F65%30.07 "Hg
* Reported Apr 19 7:53 AM — May 4 7:53 AM, Honolulu, Weather by CustomWeather, © 2016

Note: Actual official high and low records may vary slightly from our data, if they occured in-between our weather recording intervals... More about our weather records

Advertising

Honolulu Weather History for the Previous 24 Hours

Scroll right to see more
 ConditionsComfort  
Time TempWeatherWind HumidityBarometerVisibility
7:53 AM
Wed, May 4
78 °FScattered clouds.12 mph69%30.08 "Hg10 mi
6:53 AM76 °FScattered clouds.14 mph69%30.07 "Hg10 mi
5:53 AM74 °FPassing clouds.6 mph76%30.05 "Hg10 mi
4:53 AM74 °FPassing clouds.7 mph79%30.05 "Hg10 mi
3:53 AM74 °FPassing clouds.6 mph79%30.05 "Hg10 mi
2:53 AM74 °FPassing clouds.No wind76%30.06 "Hg10 mi
1:53 AM74 °FPassing clouds.3 mph76%30.08 "Hg10 mi
12:53 AM75 °FPassing clouds.5 mph74%30.09 "Hg10 mi
11:53 PM
Tue, May 3
75 °FPassing clouds.No wind76%30.11 "Hg10 mi
10:53 PM76 °FPassing clouds.10 mph74%30.12 "Hg10 mi
9:53 PM75 °FPassing clouds.14 mph79%30.11 "Hg10 mi
8:53 PM76 °FPassing clouds.9 mph77%30.10 "Hg10 mi
7:53 PM75 °FPassing clouds.9 mph79%30.09 "Hg10 mi
6:53 PM77 °FScattered clouds.10 mph71%30.08 "Hg10 mi
5:53 PM78 °FBroken clouds.15 mph69%30.07 "Hg10 mi
4:53 PM81 °FScattered clouds.10 mph58%30.06 "Hg10 mi
3:53 PM83 °FScattered clouds.15 mph55%30.06 "Hg10 mi
2:53 PM80 °FBroken clouds.20 mph64%30.07 "Hg10 mi
1:53 PM78 °FLight rain. Broken clouds.12 mph71%30.09 "Hg10 mi
12:53 PM80 °FBroken clouds.14 mph64%30.11 "Hg10 mi
11:53 AM80 °FPartly sunny.16 mph64%30.12 "Hg10 mi
10:53 AM80 °FBroken clouds.18 mph64%30.14 "Hg10 mi
Weather by CustomWeather, © 2016

See weather overviewHow to use our weather pages